Weather in Lashio

Myanmar     22°57′23″N   97°45′13″E
temp.,
°C
wind,
m/s
gust,
m/s
humid.,
%
clouds,
%
prec.,
mm/h
press.,
hPa
HPBL,
m
25 february, thu
thu2500:30+15ne015520 0.0 101023
03:30+14e016094 0.0 100923
06:30+13se016697 0.0 101123
09:30+24wsw123725 0.0 1011574
12:30+29w272216 0.0 10092856
15:30+29wnw48180 0.0 10063019
18:30+20nw13330 0.0 100776
21:30+16e11430 0.0 100923
26 february, fri
fri2600:30+14ne11460 0.0 100923
03:30+12e00490 0.0 100823
06:30+12ese01530 0.0 101023
09:30+23sw13300 0.0 1011596
12:30+28wsw27200 0.0 10093005
15:30+27w46210 0.0 10063057
18:30+19nnw12440 0.0 100823
21:30+16ne11520 0.0 101123
27 february, sat
sat2700:30+13n00634 0.0 101023
03:30+12ne116614 0.0 100923
06:30+11ese00707 0.0 101122
09:30+25ssw12320 0.0 1012539
12:30+29sw26210 0.0 10093175
15:30+29sw352020 0.0 10063216
18:30+20nne113510 0.0 100823
21:30+17ne12400 0.0 101123
28 february, sun
sun2800:30+14n01490 0.0 101123
03:30+12ne11550 0.0 101023
06:30+12ene11570 0.0 101122
09:30+26sw00260 0.0 1012466
12:30+31w25170 0.0 10092887
15:30+31ssw25170 0.0 10063338
18:30+21n12330 0.0 100824
21:30+17ene11390 0.0 101123
1 march, mon
mon100:30+14nne11440 0.0 101223
03:30+13ene11500 0.0 101223
06:30+12e01510 0.0 101323
09:30+27wnw11240 0.0 1014472
12:30+31wsw25170 0.0 10112984
15:30+31ssw35192 0.0 10093313
18:30+24sw133047 0.0 101180
21:30+18ne11431 0.0 101323